This is the latest recevied weather packets stored in our database for station/object N2KI-13. If no packets are shown the sender has not sent any weather packets the latest 10 day(s).
| Time | Temp. | Humidity | Pressure | Rain* | Wind** | Luminosity | Snow |
|---|---|---|---|---|---|---|---|
| 1777455904 | 11.11° C | 69% | 1015.8 hPa | 0 mm | - | - | - |
| 1777454104 | 11.67° C | 65% | 1015.9 hPa | 0 mm | - | - | - |
| 1777452604 | 11.67° C | 64% | 1016 hPa | 0 mm | - | - | - |
| 1777450804 | 11.67° C | 63% | 1015.8 hPa | 0 mm | - | - | - |
| 1777449904 | 11.67° C | 64% | 1015.7 hPa | 0 mm | - | - | - |
| 1777449304 | 11.67° C | 64% | 1015.7 hPa | 0 mm | - | - | - |
| 1777448404 | 11.67° C | 66% | 1015.5 hPa | 0 mm | - | - | - |
| 1777447804 | 11.67° C | 68% | 1015.7 hPa | 0 mm | - | - | - |
| 1777441504 | 12.78° C | 62% | 1017 hPa | 0 mm | - | - | - |
| 1777441204 | 12.78° C | 62% | 1017 hPa | 0 mm | - | - | - |
| 1777437604 | 13.33° C | 60% | 1017.7 hPa | 0 mm | - | - | - |
| 1777436704 | 13.89° C | 61% | 1017.6 hPa | 0 mm | - | - | - |
| 1777433404 | 13.89° C | 60% | 1017 hPa | 0 mm | - | - | - |
| 1777432804 | 13.89° C | 61% | 1017 hPa | 0 mm | - | - | - |
| 1777427104 | 14.44° C | 57% | 1017.1 hPa | 0 mm | - | - | - |
| 1777422604 | 15.56° C | 54% | 1016.8 hPa | 0 mm | - | - | - |
| 1777421705 | 15.56° C | 53% | 1016.9 hPa | 0 mm | - | - | - |
| 1777420204 | 16.11° C | 53% | 1017 hPa | 0 mm | - | - | - |
| 1777418404 | 16.67° C | 50% | 1017 hPa | 0 mm | - | - | - |
| 1777418104 | 16.67° C | 50% | 1017 hPa | 0 mm | - | - | - |
| 1777416604 | 17.22° C | 47% | 1017.1 hPa | 0 mm | - | - | - |
| 1777414204 | 17.22° C | 45% | 1017.2 hPa | 0 mm | - | - | - |
| 1777408503 | 17.22° C | 43% | 1017.5 hPa | 0 mm | - | - | - |
| 1777406703 | 17.22° C | 44% | 1018.1 hPa | 0 mm | - | - | - |
| 1777405505 | 17.78° C | 41% | 1018.4 hPa | 0 mm | - | - | - |
* Rain latest hour (hover to see other rain measurements)
** Current wind speed in m/s (hover to see current wind gust speed)